Home   Weather   Sarnen   Past weeks
Flag for Switzerland

Past Weather in Sarnen, Obwalden, Switzerland — Yesterday and Last 2 Weeks

Now
38 °F

Chilly.


Feels Like: 38 °F
Forecast: 40 / 35 °F
Wind: 2 mph from West

Location: Giswil

Current Time: Jan 28, 2020 at 4:55:01 am

Latest Report: Jan 28, 2020 at 3:00 am


Visibility: N/A

Pressure: 29.79 "Hg

Humidity: 100%

Dew Point: 38 °F

Location of SarnenLocation

Past Weather in Sarnen — Graph

°F

Sarnen Temperature Yesterday

Maximum temperature yesterday: 45 °F (at 4:00 pm)
Minimum temperature yesterday: 28 °F (at 8:00 am)
Average temperature yesterday: 36 °F

High & Low Weather Summary for the Past Weeks

 TemperatureHumidityPressure
High48 °F (Jan 16, 3:00 pm)100% (Jan 13, 6:00 am)30.84 "Hg (Jan 13, 6:00 am)
Low21 °F (Jan 21, 5:00 am)43% (Jan 14, 2:00 pm)29.78 "Hg (Jan 28, 2:00 am)
Average32 °F94%30.39 "Hg
* Reported Jan 13 3:00 am — Jan 28 3:00 am, Sarnen. Weather by CustomWeather, © 2020

Note: Actual official high and low records may vary slightly from our data, if they occured in-between our weather recording intervals... More about our weather records

Sarnen Weather History for the Previous 24 Hours

Scroll right to see more
 ConditionsComfort  
Time TempWeatherWind HumidityBarometerVisibility
3:00 am
Tue, Jan 28
38 °FChilly.2 mph100%29.79 "HgN/A
2:00 am38 °FChilly.2 mph100%29.78 "HgN/A
1:00 am38 °FChilly.1 mph99%29.82 "HgN/A
12:00 am37 °FChilly.No wind99%29.84 "HgN/A
11:00 pm
Mon, Jan 27
37 °FChilly.1 mph99%29.89 "HgN/A
10:00 pm38 °FChilly.1 mph99%29.90 "HgN/A
9:00 pm37 °FChilly.2 mph99%29.88 "HgN/A
8:00 pm38 °FChilly.3 mph99%29.88 "HgN/A
7:00 pm38 °FChilly.1 mph99%29.90 "HgN/A
6:00 pm40 °FChilly.1 mph99%29.92 "HgN/A
5:00 pm41 °FQuite cool.2 mph97%29.94 "HgN/A
4:00 pm45 °FQuite cool.No wind71%29.94 "HgN/A
3:00 pm44 °FQuite cool.1 mph72%29.95 "HgN/A
2:00 pm44 °FQuite cool.2 mph69%29.96 "HgN/A
1:00 pm44 °FQuite cool.2 mph71%30.00 "HgN/A
12:00 pm40 °FChilly.2 mph99%30.05 "HgN/A
11:00 am36 °FChilly.No wind99%30.09 "HgN/A
10:00 am30 °FChilly.1 mph100%30.13 "HgN/A
9:00 am29 °FChilly.No wind100%30.16 "HgN/A
8:00 am28 °FChilly.2 mph100%30.18 "HgN/A
7:00 am29 °FChilly.No wind100%30.18 "HgN/A
6:00 am29 °FChilly.3 mph100%30.19 "HgN/A
5:00 am32 °FChilly.2 mph100%30.18 "HgN/A
4:00 am33 °FChilly.2 mph100%30.18 "HgN/A
Weather by CustomWeather, © 2020

See weather overview

Advertising